User: anonymous   Login
Location: Buckeye Ditch
(40.9104°N, 122.9517°W)
Time: 07:22:35
(UTC+00:00)
Language:

KORONAS-FOTON - Orbit

View from above orbital plane
View from above orbital plane
View from above satellite
View from above satellite

Ground track
Ground track

The orbit data is extracted from the following two-line orbital elements,

1 33504U 09003A   24166.57535056  .00006504  00000-0  24901-3 0  9996
2 33504  82.4370 205.4414 0014052 246.4674 113.5088 15.26277883848629
Epoch (UTC): 14 June 2024 13:48:30
Eccentricity: 0.0014052
inclination: 82.4370°
perigee height: 477 km
apogee height: 496 km
right ascension of ascending node: 205.4414°
argument of perigee: 246.4674°
revolutions per day: 15.26277883
mean anomaly at epoch: 113.5088°
orbit number at epoch: 84862

The dashed part of the orbit path shows where the satellite is in the earth's shadow,  

DLR